Location: Unspecified
(0.0000°N, 0.0000°E)
Time: 16:39:40
(UTC+01:00)

AO-40 - Visible Passes

Search period start: 03 December 2016 00:00
Search period end: 13 December 2016 00:00
Orbit: 1011 x 58809 km, 6.7° (Epoch: 01 December)

Date Brightness Start Highest point End Pass type
(mag) Time Alt. Az. Time Alt. Az. Time Alt. Az.
03 Dec ? 02:08:42 10° W 03:42:53 67° W 09:50:04 10° W visible
03 Dec ? 20:55:14 10° WNW 21:03:39 70° N 11:23:54 10° W visible
04 Dec ? 23:46:13 10° E 06:27:28 83° S 10:46:56 10° E visible
06 Dec ? 01:33:17 10° E 03:54:42 24° E 05:07:27 10° E visible
07 Dec ? 01:40:11 10° W 03:14:18 71° W 09:41:30 10° W visible
07 Dec ? 20:27:37 10° WNW 20:35:24 69° N 11:17:37 10° W visible
08 Dec ? 23:37:22 10° E 06:22:49 83° S 10:19:03 10° E visible
10 Dec ? 01:30:52 10° E 03:27:16 20° E 04:33:04 10° E visible
11 Dec ? 01:11:47 10° W 02:45:28 76° W 09:32:50 10° W visible
11 Dec ? 19:59:58 10° WNW 20:07:14 67° N 11:12:07 10° W visible
